AZU6417 SBBR-SBSP

Flight info

Callsign AZU6417
Flight time N/A
Altitude 31000
Route LIVE2B GEBEP UZ2 OPROM/N0424F330 UZ2 ENTIT OTAGA ORES1A
Aircraft E195/M-SDE3GILORVW/S

Departure

Time 2026-04-29 00:39
Airport Presidente Juscelino Kubitschek International Airport (SBBR)

Arrival

Time N/A
Airport Congonhas–Deputado Freitas Nobre Airport (SBSP)
Time Latitude Longitude Altitude Speed Heading
2026-04-29 00:12 -15.87268 -47.91846 3469 ft 0 kts 356°
2026-04-29 00:25 -15.87278 -47.91845 3470 ft 2 kts 358°
2026-04-29 00:26 -15.87294 -47.91845 3471 ft 2 kts
2026-04-29 00:26 -15.87310 -47.91846 3470 ft 2 kts 13°
2026-04-29 00:26 -15.87324 -47.91854 3471 ft 2 kts 78°
2026-04-29 00:26 -15.87326 -47.91863 3470 ft 0 kts 85°
2026-04-29 00:29 -15.87325 -47.91858 3471 ft 1 kts 85°
2026-04-29 00:29 -15.87324 -47.91840 3470 ft 4 kts 85°
2026-04-29 00:30 -15.87321 -47.91802 3471 ft 7 kts 86°
2026-04-29 00:30 -15.87318 -47.91741 3470 ft 10 kts 86°
2026-04-29 00:30 -15.87340 -47.91670 3469 ft 11 kts 155°
2026-04-29 00:30 -15.87416 -47.91660 3470 ft 11 kts 175°
2026-04-29 00:31 -15.87498 -47.91655 3468 ft 13 kts 177°
2026-04-29 00:31 -15.87600 -47.91650 3464 ft 16 kts 177°
2026-04-29 00:31 -15.87711 -47.91651 3462 ft 16 kts 205°
2026-04-29 00:31 -15.87741 -47.91748 3462 ft 14 kts 266°
2026-04-29 00:32 -15.87747 -47.91843 3464 ft 13 kts 266°
2026-04-29 00:32 -15.87752 -47.91928 3466 ft 11 kts 266°
2026-04-29 00:32 -15.87757 -47.92005 3468 ft 10 kts 266°
2026-04-29 00:32 -15.87762 -47.92077 3469 ft 10 kts 266°
2026-04-29 00:33 -15.87767 -47.92152 3470 ft 11 kts 266°
2026-04-29 00:33 -15.87772 -47.92238 3472 ft 13 kts 266°
2026-04-29 00:33 -15.87779 -47.92340 3474 ft 15 kts 266°
2026-04-29 00:33 -15.87787 -47.92460 3475 ft 18 kts 266°
2026-04-29 00:34 -15.87796 -47.92603 3475 ft 21 kts 266°
2026-04-29 00:34 -15.87806 -47.92765 3477 ft 23 kts 266°
2026-04-29 00:34 -15.87817 -47.92935 3480 ft 24 kts 266°
2026-04-29 00:34 -15.87829 -47.93101 3483 ft 22 kts 265°
2026-04-29 00:35 -15.87838 -47.93245 3490 ft 18 kts 267°
2026-04-29 00:35 -15.87844 -47.93360 3495 ft 15 kts 266°
2026-04-29 00:35 -15.87851 -47.93463 3504 ft 14 kts 266°
2026-04-29 00:35 -15.87857 -47.93560 3499 ft 13 kts 266°
2026-04-29 00:36 -15.87862 -47.93643 3502 ft 10 kts 266°
2026-04-29 00:36 -15.87866 -47.93705 3505 ft 7 kts 266°
2026-04-29 00:36 -15.87869 -47.93752 3506 ft 6 kts 266°
2026-04-29 00:36 -15.87871 -47.93792 3510 ft 5 kts 266°
2026-04-29 00:37 -15.87874 -47.93833 3514 ft 7 kts 266°
2026-04-29 00:37 -15.87878 -47.93893 3512 ft 10 kts 266°
2026-04-29 00:37 -15.87902 -47.93979 3509 ft 15 kts 226°
2026-04-29 00:37 -15.88008 -47.93993 3514 ft 15 kts 173°
2026-04-29 00:38 -15.88062 -47.93942 3512 ft 7 kts 101°
2026-04-29 00:38 -15.88059 -47.93878 3507 ft 14 kts 86°
2026-04-29 00:38 -15.88041 -47.93593 3502 ft 69 kts 86°
2026-04-29 00:38 -15.87996 -47.92891 3479 ft 125 kts 86°
2026-04-29 00:39 -15.87920 -47.91858 3519 ft 158 kts 86°
2026-04-29 00:39 -15.87848 -47.90635 3867 ft 177 kts 95°
2026-04-29 00:39 -15.88110 -47.89338 4368 ft 193 kts 110°
2026-04-29 00:39 -15.89018 -47.88231 5038 ft 210 kts 149°
2026-04-29 00:40 -15.90428 -47.88006 6031 ft 213 kts 182°
2026-04-29 00:40 -15.91953 -47.88011 6556 ft 228 kts 162°
2026-04-29 00:40 -15.93464 -47.87366 7101 ft 246 kts 152°
2026-04-29 00:40 -15.95115 -47.86649 7629 ft 269 kts 159°
2026-04-29 00:41 -15.96969 -47.86143 8320 ft 284 kts 166°
2026-04-29 00:41 -15.98939 -47.85728 9027 ft 294 kts 167°
2026-04-29 00:41 -16.00945 -47.85357 9281 ft 297 kts 169°
2026-04-29 00:41 -16.02954 -47.85037 9176 ft 287 kts 170°
2026-04-29 00:42 -16.04912 -47.84742 9084 ft 280 kts 170°
2026-04-29 00:42 -16.06856 -47.84416 9489 ft 289 kts 166°
2026-04-29 00:42 -16.08816 -47.83881 10380 ft 296 kts 162°
2026-04-29 00:42 -16.10868 -47.83256 10873 ft 317 kts 162°
2026-04-29 00:43 -16.13023 -47.82596 11620 ft 327 kts 162°
2026-04-29 00:43 -16.15225 -47.81929 12509 ft 333 kts 162°
2026-04-29 00:43 -16.17487 -47.81245 13360 ft 341 kts 162°
2026-04-29 00:43 -16.19758 -47.80558 14185 ft 347 kts 162°
2026-04-29 00:44 -16.22105 -47.79849 14992 ft 353 kts 162°
2026-04-29 00:44 -16.24494 -47.79130 15856 ft 358 kts 162°
2026-04-29 00:44 -16.26904 -47.78404 16651 ft 364 kts 162°
2026-04-29 00:44 -16.29360 -47.77661 17418 ft 370 kts 162°
2026-04-29 00:45 -16.31823 -47.76918 18168 ft 375 kts 162°
2026-04-29 00:45 -16.34350 -47.76154 18817 ft 380 kts 162°
2026-04-29 00:45 -16.36906 -47.75381 19451 ft 384 kts 162°
2026-04-29 00:45 -16.39493 -47.74599 20069 ft 388 kts 162°
2026-04-29 00:46 -16.42106 -47.73808 20669 ft 392 kts 162°
2026-04-29 00:46 -16.44739 -47.73012 21255 ft 396 kts 162°
2026-04-29 00:46 -16.47400 -47.72206 21842 ft 400 kts 162°
2026-04-29 00:46 -16.50094 -47.71388 22414 ft 405 kts 163°
2026-04-29 00:47 -16.52812 -47.70565 22975 ft 409 kts 163°
2026-04-29 00:47 -16.55561 -47.69732 23539 ft 413 kts 163°
2026-04-29 00:47 -16.58336 -47.68890 24039 ft 416 kts 163°
2026-04-29 00:47 -16.61097 -47.68053 24534 ft 418 kts 163°
2026-04-29 00:48 -16.63893 -47.67206 25007 ft 420 kts 163°
2026-04-29 00:48 -16.66712 -47.66350 25455 ft 423 kts 163°
2026-04-29 00:48 -16.69543 -47.65490 25896 ft 425 kts 163°
2026-04-29 00:48 -16.72396 -47.64624 26327 ft 428 kts 163°
2026-04-29 00:49 -16.75264 -47.63751 26759 ft 430 kts 163°
2026-04-29 00:49 -16.78148 -47.62874 27197 ft 432 kts 163°
2026-04-29 00:49 -16.81047 -47.61993 27615 ft 435 kts 163°
2026-04-29 00:49 -16.83976 -47.61101 28042 ft 437 kts 164°
2026-04-29 00:50 -16.86862 -47.60224 28447 ft 439 kts 164°
2026-04-29 00:50 -16.89826 -47.59320 28822 ft 442 kts 164°
2026-04-29 00:50 -16.92775 -47.58421 29352 ft 440 kts 164°
2026-04-29 00:50 -16.95703 -47.57530 29920 ft 437 kts 164°
2026-04-29 00:51 -16.98585 -47.56651 30325 ft 437 kts 164°
2026-04-29 00:51 -17.01507 -47.55759 30682 ft 436 kts 164°
2026-04-29 00:51 -17.04416 -47.54873 31150 ft 430 kts 165°
2026-04-29 00:52 -17.10122 -47.53132 31118 ft 423 kts 165°
2026-04-29 00:52 -17.15762 -47.51409 31053 ft 422 kts 165°
2026-04-29 00:53 -17.21413 -47.49682 31054 ft 423 kts 165°
2026-04-29 00:53 -17.27026 -47.47965 31052 ft 423 kts 165°
2026-04-29 00:54 -17.32676 -47.46236 31047 ft 422 kts 165°
2026-04-29 00:54 -17.38331 -47.44504 31047 ft 423 kts 165°
2026-04-29 00:55 -17.43954 -47.42781 31051 ft 423 kts 165°
2026-04-29 00:55 -17.49630 -47.41134 31060 ft 422 kts 171°
2026-04-29 00:56 -17.55435 -47.40182 31037 ft 422 kts 173°
2026-04-29 00:56 -17.61248 -47.39290 31045 ft 421 kts 173°
2026-04-29 00:57 -17.67015 -47.38393 31052 ft 422 kts 173°
2026-04-29 00:57 -17.72833 -47.37483 31044 ft 421 kts 173°
2026-04-29 00:58 -17.78639 -47.36578 31045 ft 421 kts 173°
2026-04-29 00:58 -17.84443 -47.35669 31045 ft 421 kts 173°
2026-04-29 00:59 -17.90219 -47.34766 31040 ft 421 kts 173°
2026-04-29 00:59 -17.96024 -47.33854 31047 ft 421 kts 173°
2026-04-29 01:00 -18.01793 -47.32952 31056 ft 421 kts 173°
2026-04-29 01:00 -18.07609 -47.32038 31050 ft 421 kts 173°
2026-04-29 01:01 -18.13411 -47.31129 31049 ft 421 kts 173°
2026-04-29 01:01 -18.19215 -47.30218 31048 ft 422 kts 173°
2026-04-29 01:02 -18.24986 -47.29309 31043 ft 421 kts 173°
2026-04-29 01:02 -18.30799 -47.28394 31050 ft 422 kts 173°
2026-04-29 01:03 -18.36608 -47.27483 31052 ft 422 kts 173°
2026-04-29 01:03 -18.42410 -47.26568 31059 ft 422 kts 174°
2026-04-29 01:04 -18.48222 -47.25652 31059 ft 422 kts 174°
2026-04-29 01:04 -18.54003 -47.24740 31057 ft 422 kts 174°
2026-04-29 01:05 -18.59817 -47.23823 31060 ft 422 kts 174°
2026-04-29 01:05 -18.65634 -47.22906 31062 ft 422 kts 174°
2026-04-29 01:06 -18.71465 -47.21984 31072 ft 423 kts 174°
2026-04-29 01:06 -18.77257 -47.21067 31070 ft 423 kts 174°
2026-04-29 01:07 -18.83086 -47.20122 31063 ft 423 kts 174°
2026-04-29 01:07 -18.88914 -47.19177 31064 ft 423 kts 174°
2026-04-29 01:08 -18.94715 -47.18241 31071 ft 424 kts 174°
2026-04-29 01:08 -19.00556 -47.17295 31071 ft 423 kts 174°
2026-04-29 01:09 -19.06377 -47.16351 31077 ft 423 kts 174°
2026-04-29 01:09 -19.11225 -47.15566 31074 ft 423 kts 174°
2026-04-29 01:10 -19.18006 -47.14484 31069 ft 423 kts 175°
2026-04-29 01:10 -19.22866 -47.13817 31072 ft 423 kts 175°
2026-04-29 01:11 -19.28711 -47.13006 31080 ft 423 kts 175°
2026-04-29 01:11 -19.34569 -47.12181 31098 ft 423 kts 175°
2026-04-29 01:12 -19.40372 -47.11361 31117 ft 424 kts 175°
2026-04-29 01:12 -19.46229 -47.10533 31134 ft 424 kts 175°
2026-04-29 01:13 -19.52078 -47.09704 31144 ft 424 kts 175°
2026-04-29 01:13 -19.57935 -47.08875 31152 ft 424 kts 175°
2026-04-29 01:14 -19.63753 -47.08050 31061 ft 426 kts 175°
2026-04-29 01:14 -19.66671 -47.07636 31168 ft 424 kts 175°
2026-04-29 01:14 -19.69618 -47.07219 31076 ft 426 kts 175°
2026-04-29 01:15 -19.75487 -47.06386 31083 ft 425 kts 175°
2026-04-29 01:15 -19.81335 -47.05556 31088 ft 425 kts 175°
2026-04-29 01:16 -19.87204 -47.04722 31086 ft 425 kts 175°
2026-04-29 01:16 -19.93087 -47.03885 31092 ft 425 kts 175°
2026-04-29 01:17 -19.98927 -47.03053 31093 ft 425 kts 175°
2026-04-29 01:17 -20.04810 -47.02215 31078 ft 425 kts 175°
2026-04-29 01:18 -20.10695 -47.01376 31080 ft 426 kts 176°
2026-04-29 01:18 -20.19481 -47.00122 31081 ft 426 kts 176°
2026-04-29 01:19 -20.25359 -46.99284 31068 ft 426 kts 176°
2026-04-29 01:19 -20.31242 -46.98442 31070 ft 426 kts 176°
2026-04-29 01:20 -20.37126 -46.97599 31065 ft 427 kts 176°
2026-04-29 01:20 -20.43028 -46.96754 31062 ft 426 kts 176°
2026-04-29 01:21 -20.48913 -46.95912 31065 ft 426 kts 176°
2026-04-29 01:21 -20.54772 -46.95073 31061 ft 426 kts 176°
2026-04-29 01:22 -20.60666 -46.94226 31059 ft 427 kts 176°
2026-04-29 01:22 -20.66519 -46.93385 31061 ft 427 kts 176°
2026-04-29 01:23 -20.72413 -46.92539 31063 ft 427 kts 176°
2026-04-29 01:23 -20.78306 -46.91691 31064 ft 427 kts 176°
2026-04-29 01:24 -20.84190 -46.90781 31068 ft 427 kts 175°
2026-04-29 01:24 -20.90036 -46.89853 31065 ft 427 kts 176°
2026-04-29 01:25 -20.95919 -46.88922 31072 ft 427 kts 176°
2026-04-29 01:25 -21.01805 -46.88000 31065 ft 427 kts 176°
2026-04-29 01:26 -21.07658 -46.87081 31066 ft 427 kts 176°
2026-04-29 01:26 -21.13553 -46.86152 31069 ft 428 kts 176°
2026-04-29 01:27 -21.19447 -46.85224 31063 ft 427 kts 176°
2026-04-29 01:27 -21.25309 -46.84300 31066 ft 428 kts 176°
2026-04-29 01:28 -21.31197 -46.83371 31060 ft 428 kts 176°
2026-04-29 01:28 -21.37099 -46.82440 31063 ft 428 kts 176°
2026-04-29 01:29 -21.43008 -46.81505 31066 ft 428 kts 176°
2026-04-29 01:29 -21.48897 -46.80575 31065 ft 427 kts 176°
2026-04-29 01:30 -21.54756 -46.79647 31071 ft 428 kts 176°
2026-04-29 01:30 -21.60674 -46.78710 31076 ft 428 kts 176°
2026-04-29 01:31 -21.66536 -46.77778 31070 ft 428 kts 176°
2026-04-29 01:31 -21.72440 -46.76842 31086 ft 428 kts 176°
2026-04-29 01:32 -21.78359 -46.75901 31075 ft 430 kts 176°
2026-04-29 01:32 -21.84294 -46.74958 31075 ft 430 kts 176°
2026-04-29 01:33 -21.90176 -46.74023 31075 ft 430 kts 176°
2026-04-29 01:33 -21.96109 -46.73078 31081 ft 430 kts 176°
2026-04-29 01:34 -22.02022 -46.72135 31085 ft 429 kts 176°
2026-04-29 01:34 -22.07954 -46.71190 31088 ft 430 kts 176°
2026-04-29 01:35 -22.13864 -46.70246 31082 ft 430 kts 176°
2026-04-29 01:35 -22.16814 -46.69778 30696 ft 435 kts 176°
2026-04-29 01:35 -22.19797 -46.69300 30443 ft 433 kts 176°
2026-04-29 01:36 -22.22801 -46.68824 29761 ft 438 kts 176°
2026-04-29 01:36 -22.25812 -46.68342 29225 ft 437 kts 176°
2026-04-29 01:36 -22.28822 -46.67860 28619 ft 437 kts 176°
2026-04-29 01:36 -22.31823 -46.67376 28063 ft 434 kts 176°
2026-04-29 01:37 -22.34808 -46.66895 27507 ft 430 kts 176°
2026-04-29 01:37 -22.37717 -46.66440 26991 ft 425 kts 178°
2026-04-29 01:37 -22.40612 -46.66528 26494 ft 409 kts 197°
2026-04-29 01:37 -22.43206 -46.67608 26043 ft 391 kts 217°
2026-04-29 01:38 -22.45311 -46.69394 25582 ft 382 kts 229°
2026-04-29 01:38 -22.47253 -46.71370 25102 ft 384 kts 228°
2026-04-29 01:38 -22.49209 -46.73328 24648 ft 383 kts 228°
2026-04-29 01:38 -22.51174 -46.75297 24134 ft 383 kts 228°
2026-04-29 01:39 -22.53125 -46.77262 23635 ft 382 kts 228°
2026-04-29 01:39 -22.55037 -46.79191 23241 ft 375 kts 228°
2026-04-29 01:39 -22.56922 -46.81088 23116 ft 366 kts 229°
2026-04-29 01:39 -22.58786 -46.82978 23072 ft 369 kts 229°
2026-04-29 01:40 -22.60675 -46.84896 23079 ft 374 kts 229°
2026-04-29 01:40 -22.62582 -46.86829 23082 ft 376 kts 228°
2026-04-29 01:40 -22.64497 -46.88769 23080 ft 376 kts 228°
2026-04-29 01:40 -22.66413 -46.90707 23011 ft 378 kts 228°
2026-04-29 01:41 -22.68461 -46.92466 22791 ft 381 kts 218°
2026-04-29 01:41 -22.70693 -46.94013 22579 ft 382 kts 217°
2026-04-29 01:41 -22.72944 -46.95546 22222 ft 381 kts 217°
2026-04-29 01:41 -22.75183 -46.97064 21911 ft 377 kts 217°
2026-04-29 01:42 -22.77400 -46.98568 21616 ft 372 kts 217°
2026-04-29 01:42 -22.79562 -47.00041 21309 ft 371 kts 217°
2026-04-29 01:42 -22.81770 -47.01552 21002 ft 369 kts 217°
2026-04-29 01:42 -22.83907 -47.03012 20712 ft 368 kts 217°
2026-04-29 01:43 -22.86067 -47.04488 20415 ft 366 kts 217°
2026-04-29 01:43 -22.88227 -47.05965 20018 ft 366 kts 217°
2026-04-29 01:43 -22.90383 -47.07436 19554 ft 366 kts 217°
2026-04-29 01:43 -22.92539 -47.08889 19038 ft 364 kts 216°
2026-04-29 01:44 -22.94700 -47.10350 18443 ft 365 kts 216°
2026-04-29 01:44 -22.96849 -47.11803 17880 ft 362 kts 216°